Theta_e
326 326 327 328 330 327 327 327 328 328 329 330 332 334 334 334 335 336 343 348 350 350 351 352 353 352 350 346 343 344 344 344
326 326 327 328 328 327 327 329 329 327 329 330 332 333 334 334 335 337 342 347 349 350 350 352 353 354 353 344 339 340 344 345
327 327 327 327 328 328 328 328 329 329 329 331 331 333 333 335 335 336 340 345 347 347 349 350 352 354 355 355 349 342 340 340
328 327 327 327 328 328 328 330 328 330 330 329 329 330 333 333 334 336 338 339 341 344 346 348 350 352 353 354 355 349 343 339
331 329 329 328 328 329 329 330 333 330 328 330 330 331 332 333 333 333 335 338 340 341 342 346 348 350 351 353 353 354 353 347
331 330 329 329 329 329 329 331 330 331 330 330 329 330 330 330 331 332 334 336 337 338 340 343 345 348 350 350 352 352 354 355
329 325 324 329 329 329 330 330 331 331 331 331 330 330 330 330 330 331 332 333 336 341 342 344 345 347 350 350 350 351 352 355
324 323 323 324 326 327 328 330 331 330 331 331 330 329 330 329 329 329 329 329 330 335 340 343 345 347 348 346 348 350 351 350
325 324 323 325 326 326 327 327 328 330 330 330 329 329 329 328 328 328 329 330 332 333 336 341 343 340 344 339 349 350 347 350
321 323 324 325 326 326 326 327 327 328 328 329 328 327 327 327 328 328 328 329 331 331 332 337 340 338 345 347 345 346 346 345
320 321 323 323 323 323 326 327 327 327 328 328 327 327 327 326 327 328 329 330 331 331 332 333 335 338 340 347 349 350 344 342
316 320 322 323 323 322 326 329 329 331 333 334 336 332 330 327 328 328 330 330 330 330 331 332 330 332 341 345 348 346 341 341
314 316 318 320 323 329 328 339 336 335 336 338 342 340 337 336 336 335 334 333 333 333 329 330 328 332 333 343 343 340 352 352
313 314 314 315 317 320 328 330 332 334 334 335 337 338 341 342 342 338 337 342 345 338 330 332 331 326 327 328 334 346 348 349
313 313 314 314 314 317 319 320 323 331 335 336 337 338 341 344 344 336 340 345 348 336 338 344 332 330 331 330 333 344 347 346
313 313 314 314 315 315 315 317 320 321 329 335 337 340 344 345 344 346 349 353 352 348 347 349 339 343 342 338 339 339 340 341
315 315 313 311 311 312 314 315 315 317 326 333 337 341 345 344 345 348 350 348 349 351 351 350 348 348 348 349 354 350 354 357
314 313 314 314 313 313 313 316 317 322 325 331 338 340 341 344 345 345 346 345 345 345 345 345 344 338 336 337 338 345 353 353
314 311 312 313 314 314 317 319 321 325 327 335 337 337 339 341 341 341 343 344 346 347 347 347 346 338 333 332 332 333 337 339
Wind_Speed
20 21 25 24 25 27 4 3 8 16 19 16 10 18 26 27 23 22 26 32 36 38 40 39 40 44 46 48 47 46 45 45
26 26 24 21 25 21 14 15 18 11 19 12 21 21 19 22 26 24 27 30 31 34 38 40 40 41 44 49 49 49 48 48
22 25 24 22 16 22 18 17 11 9 11 15 16 16 22 21 26 27 26 29 31 32 34 37 36 37 40 42 48 48 49 49
24 24 26 28 24 27 14 23 18 14 6 4 7 14 17 20 24 23 24 24 24 26 27 30 35 38 41 42 42 48 48 47
16 19 23 30 29 25 24 15 21 16 4 11 8 3 5 7 8 11 14 17 20 22 27 29 32 35 37 39 43 42 45 46
19 18 17 25 29 28 27 19 18 17 12 12 3 3 4 6 6 5 7 10 17 20 26 25 29 35 41 37 38 39 40 43
12 4 5 12 27 29 30 27 25 19 21 17 8 9 9 12 11 7 5 4 9 14 19 21 25 31 36 36 38 39 43 41
13 10 8 11 14 15 20 23 25 26 24 13 10 5 15 17 20 23 25 22 18 16 17 19 23 26 29 36 39 40 42 49
14 9 10 15 22 20 19 19 17 23 17 16 17 17 21 22 23 22 21 20 17 16 18 18 22 22 25 28 30 37 43 44
6 7 15 10 8 19 25 21 21 20 17 17 14 19 22 22 23 24 28 25 24 22 19 19 20 20 22 24 30 38 41 41
11 13 10 7 5 7 11 16 18 18 14 15 22 26 29 28 28 28 28 28 27 25 22 20 22 21 19 23 27 32 39 39
8 16 16 4 16 10 5 10 11 5 10 10 9 12 13 22 24 27 26 26 26 23 22 22 25 21 20 23 25 31 35 35
14 13 9 13 7 4 13 5 8 2 7 9 9 12 23 24 22 19 18 21 20 21 24 23 21 18 18 20 25 27 24 27
15 18 23 12 12 13 12 15 14 16 16 17 19 21 25 26 29 29 23 20 19 20 21 21 23 24 22 22 20 23 23 24
12 13 13 13 16 18 16 22 21 22 22 22 25 27 26 28 25 23 23 19 16 14 15 15 18 20 20 19 20 22 23 25
19 23 25 24 23 29 23 27 26 26 26 24 26 27 25 22 16 14 13 10 7 9 12 11 12 12 14 14 14 15 15 17
20 23 26 30 33 34 29 28 33 32 30 27 28 26 18 12 10 7 6 3 3 6 9 10 12 13 14 14 12 12 12 12
18 22 20 23 27 32 32 28 29 26 28 24 21 14 6 6 7 6 7 6 6 6 6 9 8 10 11 12 12 10 6 6
26 34 32 27 24 27 29 27 28 26 24 21 16 8 9 8 6 7 9 10 9 7 6 7 6 4 5 5 5 5 6 8
Wind_Direction
205 201 202 194 213 215 244 201 272 223 220 256 243 224 219 226 219 216 204 204 206 206 207 207 207 208 209 215 219 220 223 225
196 200 206 204 207 212 229 241 238 227 231 229 209 211 217 215 216 209 202 202 205 207 209 211 211 209 210 219 222 221 222 226
183 201 190 200 201 213 223 233 221 236 237 215 230 214 214 211 210 207 202 202 204 209 211 214 213 212 212 214 220 224 224 226
202 198 214 203 205 200 213 212 241 281 272 109 235 215 215 215 211 211 208 212 213 214 211 211 212 213 214 213 213 220 226 226
203 205 203 214 205 210 218 230 214 222 209 121 104 117 179 200 215 234 233 228 219 212 210 213 214 213 214 214 215 215 218 223
219 207 207 217 206 215 211 222 227 214 231 165 171 156 172 185 190 215 205 220 223 225 219 216 214 214 212 213 216 215 216 214
246 291 280 242 213 216 217 223 228 227 222 237 229 264 271 293 291 274 268 288 253 228 214 216 216 217 218 217 215 212 216 216
246 222 234 234 227 236 235 235 236 244 251 261 251 288 291 283 285 287 282 280 273 249 227 227 224 221 220 223 218 213 214 220
227 200 258 244 225 221 226 227 231 237 241 245 250 257 253 264 271 278 274 272 262 238 240 238 225 228 225 232 219 217 219 221
255 187 238 252 206 212 223 231 230 247 258 266 259 250 254 256 260 268 261 264 258 256 251 246 241 240 239 223 226 219 224 223
236 227 276 241 163 219 212 229 232 250 252 255 253 252 252 254 258 253 254 255 260 261 260 258 249 249 234 223 218 217 225 229
229 239 234 241 230 213 173 250 247 234 249 272 291 250 252 251 249 255 259 260 261 261 259 252 256 248 225 214 213 224 226 227
228 249 250 263 77 51 193 80 55 290 308 309 291 287 292 292 288 288 279 270 263 257 252 247 241 224 225 215 222 230 222 221
233 242 240 259 282 236 1 331 325 321 317 315 304 297 289 283 279 273 275 276 275 264 247 233 229 230 230 233 232 223 219 221
224 234 273 284 247 289 318 308 309 313 314 313 308 306 295 287 278 263 260 267 265 245 222 217 222 222 221 224 217 215 215 222
262 255 262 267 273 277 285 288 297 297 298 304 304 303 293 285 273 258 250 253 244 215 200 195 197 193 196 200 200 203 211 217
263 259 259 254 258 269 274 282 286 290 294 303 310 306 293 268 246 219 207 170 136 150 145 130 149 158 165 173 180 194 199 206
251 251 259 266 260 260 270 280 277 279 279 284 296 285 287 237 203 178 146 116 105 98 100 103 115 136 149 165 170 167 173 204
259 260 260 257 254 264 275 273 275 269 264 265 265 254 200 192 161 136 120 106 86 70 69 75 77 119 140 150 167 187 197 225